Simultaneous Nadir Overpasses (SNOs) Predictions

Prediction of SNOs between NOAA-20 and LANDSAT-8 Satellite Orbit:

Table of predicted SNOs for the next 14.0 days since TLE Epoch: 3/23/2024
Index Date (NOAA-20) Time (NOAA-20) Lat,Lon (NOAA-20) SZA (NOAA-20 ) Date (LANDSAT-8) Time (LANDSAT-8) Lat,Lon (LANDSAT-8) SZA (LANDSAT-8 ) Distance(km) Time Diff (sec)
1 03/23/2024 17:33:32 70.28, -87.14 68.84 03/23/2024 17:34:36 70.28, -87.11 68.83 1.24 64
2 03/23/2024 18:24:13 -70.16, 80.35 111.30 03/23/2024 18:24:06 -70.15, 80.35 111.31 1.22 7
3 03/23/2024 19:14:47 69.88,-111.87 68.39 03/23/2024 19:13:35 69.95,-112.30 68.48 18.20 72
4 03/26/2024 12:18:05 -70.73, 171.04 111.79 03/26/2024 12:19:15 -70.64, 172.23 111.93 45.03 70
5 03/26/2024 13:08:34 70.18, -20.76 67.63 03/26/2024 13:08:48 70.21, -20.76 67.65 2.85 14
6 03/26/2024 13:59:15 -70.07, 146.74 112.51 03/26/2024 13:58:18 -70.09, 146.71 112.48 2.97 57
7 03/29/2024 07:52:59 -70.23,-121.93 113.42 03/29/2024 07:53:32 -70.25,-121.89 113.41 2.88 33
8 03/29/2024 08:43:36 70.10, 45.60 66.44 03/29/2024 08:43:00 70.09, 45.52 66.43 3.39 36
9 04/01/2024 02:37:18 70.23, 136.99 65.50 04/01/2024 02:38:12 70.24, 136.92 65.51 2.96 54
10 04/01/2024 03:28:00 -70.17, -55.60 114.58 04/01/2024 03:27:41 -70.19, -55.52 114.56 3.72 19
11 04/01/2024 04:18:27 69.51, 112.72 64.72 04/01/2024 04:17:17 69.58, 111.27 64.84 56.74 70
12 04/03/2024 21:21:43 -70.31, 35.76 115.49 04/03/2024 21:22:54 -70.29, 35.81 115.52 2.77 71
13 04/03/2024 22:12:20 70.18,-156.70 64.36 04/03/2024 22:12:21 70.18,-156.71 64.36 0.59 1
14 04/03/2024 23:03:01 -70.07, 10.79 115.77 04/03/2024 23:01:51 -70.07, 10.77 115.76 0.71 70



Historial Predications of SNOs between NOAA-20 and LANDSAT-8
